Miscellaneous Local Product
Issued by NWS Hastings, NE

Home | Current Version | Previous Version | Text Only | Print | Product List | Glossary Off
Versions: 1 2 3 4 5 6 7 8 9 10 11 12 13 14 15 16 17 18 19 20 21 22 23 24 25 26 27 28 29 30 31 32 33 34 35 36 37 38 39 40 41 42 43 44 45 46 47 48 49 50

000
AXUS43 KGID 251202
MISGRI

GID CWA HOURLY WEATHER ROUNDUP
NATIONAL WEATHER SERVICE HASTINGS NE
600 AM CST THU DEC 25 2014

NOTE: "FAIR" INDICATES FEW OR NO CLOUDS BELOW 12,000 FEET WITH NO
SIGNIFICANT WEATHER AND/OR OBSTRUCTIONS TO VISIBILITY.

...SOUTH CENTRAL NEBRASKA...

CITY           SKY/WX    TMP DP  RH WIND       PRES   REMARKS
GRAND ISLAND   CLOUDY    30  22  72 S6        29.53F WCI  24
HASTINGS       MOCLDY    31  21  66 S12       29.50F WCI  22
KEARNEY        MOCLDY    27  19  74 E6        29.49F WCI  20
ORD            MOCLDY    26  24  92 SE5       29.50R WCI  20
YORK           CLOUDY    32  27  80 S13       29.56F WCI  22
AURORA         CLOUDY    30  24  78 S7        29.53F WCI  24
LEXINGTON      MOCLDY    26  23  87 E7        29.46F WCI  19
HOLDREGE       MOCLDY    30  21  70 S3        29.47F
HEBRON         MOCLDY    32  24  70 S8        29.58S WCI  25

...NEBRASKA PANHANDLE...

CITY           SKY/WX    TMP DP  RH WIND       PRES   REMARKS
CHADRON        CLOUDY    30  24  78 NE7       29.49R WCI  23
ALLIANCE       CLOUDY    28  25  88 NE5       29.41F WCI  23
SCOTTSBLUFF    CLOUDY    36  27  69 NE14      29.40F WCI  27
SIDNEY         MOCLDY    28  22  78 CALM      29.41R

...WESTERN AND NORTH CENTRAL NEBRASKA...

CITY           SKY/WX    TMP DP  RH WIND       PRES   REMARKS
VALENTINE      CLOUDY    30  26  85 W7        29.49R WCI  23
AINSWORTH      MOCLDY    30  25  82 NW6       29.47S WCI  24
ONEILL         CLOUDY    29  27  90 S6        29.50R WCI  23
BROKEN BOW     PTCLDY    26  22  84 CALM      29.47R
IMPERIAL       MOCLDY    26  20  77 VRB3      29.40S
NORTH PLATTE   CLEAR     25  20  81 NE6       29.44F WCI  18
MCCOOK         CLEAR     26  21  81 E8        29.42F WCI  18

...EASTERN NEBRASKA...

CITY           SKY/WX    TMP DP  RH WIND       PRES   REMARKS
NORFOLK        CLOUDY    31  23  72 S6        29.54S WCI  25
SO SIOUX CITY  CLOUDY    31  27  85 SE12      29.58S WCI  22
TEKAMAH        CLOUDY    31  28  89 SE8       29.61F WCI  23
COLUMBUS       CLOUDY    34  21  60 S7        29.57F WCI  28
ALBION         MOCLDY    31  22  69 SE6       29.53S WCI  25
OMAHA EPPLEY   CLOUDY    32  28  85 S12       29.65S WCI  23
OFFUTT AFB     CLOUDY    30  27  88 SE7       29.64S WCI  24
MILLARD        CLOUDY    33  27  80 SE7       29.63S WCI  26
LINCOLN        CLOUDY    33  26  75 S9        29.61F WCI  25
NEBRASKA CITY  CLOUDY    32  26  78 S13       29.65F WCI  22
BEATRICE       CLOUDY    33  25  73 S9G17     29.62F WCI  25
FALLS CITY     PTCLDY    32  26  78 S13       29.70S WCI  22

...NORTHERN KANSAS...

CITY           SKY/WX    TMP DP  RH WIND       PRES   REMARKS
GOODLAND       MOCLDY    31  23  72 W6        29.38F WCI  25
HILL CITY      CLOUDY    32  18  56 S7        29.48S WCI  26
NORTON         SUNNY     28  18  64 SE6       29.45F WCI  22
PHILLIPSBURG   CLEAR     30  25  80 E7        29.50S WCI  23
SMITH CENTER   CLEAR     28  21  74 SE10      29.53F WCI  19
BELOIT         CLEAR     34  23  64 SE8       29.55F WCI  27
HAYS           CLOUDY    32  16  51 E3        29.51S
RUSSELL        MOCLDY    33  22  63 S16       29.51F WCI  23
CONCORDIA      MOCLDY    34  23  64 S16       29.57F WCI  24
SALINA         MOCLDY    35  24  64 S17       29.61F WCI  25
TOPEKA         CLEAR     36  27  69 S12       29.74F WCI  28



USA.gov is the U.S. government's official web portal to all federal, state and local government web resources and services.